Butte, MT

7:09 AM MDT on July 25, 2017 (GMT -0600)
Mooney

Weather History for KBTM - March, 2014

Change the Weather History Date:

Friday, March 28, 2014

  Actual Average Record
Temperature  
Mean Temperature 37 °F 35 °F  
Max Temperature 46 °F 47 °F 66 °F (1986)
Min Temperature 27 °F 23 °F -17 °F (1975)
Degree Days  
Heating Degree Days 28 30  
Month to date heating degree days 971 953  
Since 1 July heating degree days 7349 7522  
Cooling Degree Days 0 0  
Month to date cooling degree days 0 0  
Year to date cooling degree days 0 0  
Moisture  
Dew Point 19 °F    
Average Humidity 50    
Maximum Humidity 69    
Minimum Humidity 30    
Precipitation  
Precipitation 0.00 in 0.03 in 0.40 in (1909)
Month to date precipitation 0.80 0.67  
Year to date precipitation 1.66 1.57  
Sea Level Pressure  
Sea Level Pressure 29.93 in    
Wind  
Wind Speed 6 mph (WSW)    
Max Wind Speed 18 mph    
Max Gust Speed 24 mph    
Visibility 10 miles    
Events      
T = Trace of Precipitation, MM = Missing Value Source: NWS Daily Summary

Daily Weather History Graph

Daily Weather History Graph

Search for Another Location

Airport or City:

Trip Planner

Search our weather history database for the weather conditions in past years. The results will help you decide how hot, cold, wet, or windy it might be!

Date:

Astronomy

Mar. 28, 2014 Rise Set
Actual Time 7:17 AM MDT 7:53 PM MDT
Civil Twilight 6:47 AM MDT 8:23 PM MDT
Nautical Twilight 6:11 AM MDT 8:59 PM MDT
Astronomical Twilight 5:34 AM MDT 9:36 PM MDT
Moon 5:57 AM MDT (3/28) 5:49 PM MDT (3/28)
Length of Visible Light 13h 35m
Length of Day
12h 35m
Waning Crescent, 6% of the Moon is Illuminated
Mar 28
Waning Crescent
Mar 30
New
Apr 7
First Quarter
Apr 15
Full
Apr 22
Last Quarter

Hourly Weather History & Observations

Time (MDT) Temp. Windchill Dew Point Humidity Pressure Visibility Wind Dir Wind Speed Gust Speed Precip Events Conditions
12:53 AM 30.9 °F 25.2 °F 21.9 °F 69% 29.85 in 10.0 mi West 5.8 mph - N/A   Mostly Cloudy
1:53 AM 30.9 °F 23.5 °F 21.0 °F 67% 29.89 in 10.0 mi WSW 8.1 mph - N/A   Mostly Cloudy
2:53 AM 30.9 °F 26.2 °F 19.0 °F 61% 29.90 in 10.0 mi Variable 4.6 mph - N/A   Mostly Cloudy
3:53 AM 30.0 °F - 19.9 °F 66% 29.89 in 10.0 mi Calm Calm - N/A   Overcast
4:53 AM 32.0 °F 24.2 °F 18.0 °F 56% 29.91 in 10.0 mi West 9.2 mph - N/A   Overcast
5:53 AM 32.0 °F 25.6 °F 19.0 °F 59% 29.93 in 10.0 mi Variable 6.9 mph - N/A   Scattered Clouds
6:53 AM 30.0 °F 24.1 °F 19.0 °F 64% 29.96 in 10.0 mi Variable 5.8 mph - N/A   Scattered Clouds
7:53 AM 28.0 °F 24.2 °F 19.0 °F 69% 30.00 in 10.0 mi WNW 3.5 mph - N/A   Clear
8:53 AM 30.9 °F - 21.0 °F 67% 30.01 in 10.0 mi Calm Calm - N/A   Overcast
9:53 AM 34.0 °F 31.0 °F 19.0 °F 54% 30.01 in 10.0 mi Variable 3.5 mph - N/A   Scattered Clouds
10:53 AM 37.0 °F 29.3 °F 16.0 °F 42% 30.00 in 10.0 mi SW 11.5 mph - N/A   Mostly Cloudy
11:53 AM 39.9 °F 32.5 °F 17.1 °F 40% 29.99 in 10.0 mi SW 12.7 mph - N/A   Scattered Clouds
12:53 PM 41.0 °F 33.9 °F 15.1 °F 35% 29.98 in 10.0 mi SW 12.7 mph - N/A   Partly Cloudy
1:53 PM 42.1 °F 35.2 °F 14.0 °F 32% 29.96 in 10.0 mi West 12.7 mph - N/A   Clear
2:53 PM 44.1 °F 38.1 °F 15.1 °F 31% 29.94 in 10.0 mi SW 11.5 mph - N/A   Clear
3:53 PM 44.1 °F 39.0 °F 16.0 °F 32% 29.93 in 10.0 mi SW 9.2 mph - N/A   Overcast
4:53 PM 45.0 °F 39.7 °F 18.0 °F 34% 29.90 in 10.0 mi WSW 10.4 mph 19.6 mph N/A   Overcast
5:53 PM 45.0 °F 41.2 °F 19.0 °F 36% 29.88 in 10.0 mi SW 6.9 mph - N/A   Overcast
6:53 PM 45.0 °F 41.2 °F 21.9 °F 40% 29.89 in 10.0 mi SSW 6.9 mph - N/A   Overcast
7:53 PM 44.1 °F 42.5 °F 21.9 °F 42% 29.89 in 10.0 mi SSW 3.5 mph - N/A   Overcast
8:53 PM 43.0 °F 40.3 °F 23.0 °F 45% 29.90 in 10.0 mi SW 4.6 mph - N/A   Overcast
9:53 PM 42.1 °F 40.2 °F 23.0 °F 47% 29.89 in 10.0 mi West 3.5 mph - N/A   Scattered Clouds
10:53 PM 41.0 °F - 25.0 °F 53% 29.88 in 10.0 mi Calm Calm - N/A   Clear
11:53 PM 39.0 °F - 26.1 °F 60% 29.86 in 10.0 mi Calm Calm - N/A   Scattered Clouds